sat.trackr.live / text

‹ back to catalog

STARLINK-34607

NORAD 64742 · 2025-144U

PAYLOAD ACTIVE UNKNOWN

§ Identity

Operator
Country
US
Launch date
2025-07-02
Launch site
AFETR
Launch vehicle
Mass (kg)
RCS (m²)

Purposes: comms

External: N2YO · Heavens-Above · Gunter

§ Orbital elements

Epoch: 2026-05-25T03:17:44.346912Z

Period
94.10 min
Inclination
53.1573°
Eccentricity
0.0001263
Mean motion
15.30206099 rev/d
Perigee alt
474.3 km
Apogee alt
476.1 km
Semi-major
6,853.3 km
B*
4.0238e-4
RAAN
186.1401°
Arg perigee
87.1445°
Mean anomaly
272.9700°
Rev number
5,139

§ Raw data

STARLINK-346071 64742U 25144U   26145.13731883  .00011579  00000+0  40238-3 0  99932 64742  53.1573 186.1401 0001263  87.1445 272.9700 15.30206099 51391

JSON: /api/v1/satellites/64742 · /tle

For live sub-satellite position, see the globe view (requires WebGL).

§ Visibility from observer

Set your observer location to see the next 7 days of passes ≥ 10°. The values pass through the URL so the page stays shareable.

No JS? Fill the form by hand. The geolocation button needs JavaScript.